855  
ASUS46 KSTO 211409  
RWRCA  
 
NORTHERN AND CENTRAL CA REGIONAL WEATHER ROUNDUP  
NATIONAL WEATHER SERVICE SACRAMENTO CA  
600 AM PST THU FEB 21 2019  
 
NOTE: FAIR INDICATES FEW OR NO CLOUDS BELOW 12,000 FEET WITH NO  
SIGNIFICANT WEATHER AND/OR S TO VISIBILITY
.  
 
CAZ001-003-211500-  
NORTHWEST AREA  
 
CITY SKY/WX TMP DP RH WIND PRES REMARKS
 
CRESCENT CITY CLEAR 34 30 85 N7 29.93R WCI 28  
ARCATA NOT AVBL  
SHELTER COVE NOT AVBL  
UKIAH CLEAR 32 28 85 CALM 29.78R  

 
 
CAZ006-505>513-211500-  
BAY AREA  
 
CITY SKY/WX TMP DP RH WIND PRES REMARKS
 
SANTA ROSA CLEAR 38 31 76 NW3 29.73R  
SAN RAFAEL N/A MM MM MM MISG  
NAPA CLEAR 34 31 88 CALM 29.74R  
CONCORD CLEAR 39 34 82 CALM 29.74R  
OAKLAND CITY N/A 43 MM MM MISG  
OAKLAND PTCLDY 42 35 76 N7 29.74R  
SAN FRAN CITY N/A 43 MM 61 MISG  
SAN FRAN ARPT PTCLDY 44 32 62 NW8 29.73R  
LIVERMORE CLEAR 37 33 85 CALM 29.70R  
HAYWARD CLEAR 42 33 70 N6 29.73R  
REDWOOD CITY N/A 40 MM 80 MISG  
MOFFETT ARPT PTCLDY 43 35 73 N8 29.73R  
SAN JOSE ARPT PTCLDY 40 36 86 NW10 29.72R WCI 33  

 
CAZ034-037-514>518-211500-  
CENTRAL COAST  
 
CITY SKY/WX TMP DP RH WIND PRES REMARKS
 
WATSONVILLE CLEAR 36 34 92 N5 29.70R WCI 32  
SALINAS PTCLDY 41 35 79 NW3 29.70R  
MONTEREY MOCLDY 42 34 73 E5 29.70R  
PT PIEDRAS BLS NOT AVBL  
SAN LUIS OBISP MOCLDY 36 34 92 E5 29.67F WCI 32  
SANTA MARIA CLOUDY 42 40 92 CALM 29.68S  

 
CAZ015-016-211500-  
NORTHERN SACRAMENTO VALLEY  
 
CITY SKY/WX TMP DP RH WIND PRES REMARKS
 
REDDING CLEAR 41 27 57 N9 29.79R  
RED BLUFF CLEAR 41 27 57 NW14 29.78R  
OROVILLE CLEAR 37 30 75 VRB3 29.74R  

 
CAZ016>018-211500-  
SOUTHERN SACRAMENTO VALLEY  
 
CITY SKY/WX TMP DP RH WIND PRES REMARKS
 
AUBURN CLEAR 32 30 93 CALM 29.66S  
BEALE AFB CLEAR 33 31 92 NW3 29.71R  
LINCOLN FAIR 34 34 100 CALM 29.70F  
MARYSVILLE CLEAR 37 34 89 N8 29.73R WCI 31  
SAC INTL ARPT PTCLDY 35 33 92 N5 29.72R WCI 31  
MATHER AIRPORT NOT AVBL  
DOWNTOWN SAC N/A 39 MM MM MISG  
SAC EXEC ARPT CLEAR 37 37 100 NW5 29.72S WCI 33  
VACAVILLE CLEAR 32 31 96 VRB3 29.74R  
TRAVIS AFB CLEAR 31 28 85 W5 29.72S WCI 27  

 
CAZ019>021-211500-  
SAN JOAQUIN VALLEY  
 
CITY SKY/WX TMP DP RH WIND PRES REMARKS
 
STOCKTON CLOUDY 42 38 85 NW8 29.70R  
MODESTO MOCLDY 40 36 86 NW8 29.69R WCI 34  
MERCED PTCLDY 36 35 96 NW6 29.68R WCI 31  
LEMOORE NOT AVBL  
FRESNO CLOUDY 40 36 86 NW3 29.67S  
HANFORD LGT RAIN 39 37 92 CALM 29.68F  
PORTERVILLE LGT RAIN 39 38 96 N6 29.68R WCI 35  
BAKERSFIELD MOCLDY 41 37 86 E3 29.65S  

 
CAZ011-012-071-211500-  
NORTHERN MOUNTAINS  
 
CITY SKY/WX TMP DP RH WIND PRES REMARKS
 
YREKA CLEAR 18 15 88 N8 29.84R WCI 8  
MOUNT SHASTA MOCLDY 25 21 85 VRB7G20 29.74R WCI 17  
ALTURAS CLEAR 15 12 88 CALM 29.71R  

 
CAZ011-012-071-211500-  
SIERRA NEVADA MTNS  
 
CITY SKY/WX TMP DP RH WIND PRES REMARKS
 
BLUE CANYON CLEAR 20 12 71 NE9 29.56S WCI 9  
TRUCKEE NOT AVBL  
TAHOE VLY ARPT CLOUDY 5 3 91 CALM 29.54R  
MAMMOTH LAKES FAIR 7 3 83 W12 29.50R WCI -8  

 
 
 
CLICK HERE TO GO TO PREVIOUS BULLETINS.

The Nexlab CA Page Main Text Page